| time (UTC) | temp C | wind direction | speed KPH | gust KPH | rain 1hr cm | rain 24hr cm | rain mn cm | humidity % | barometer mb |
| 20260504050307 | 18 | 69 | 8.0 | 20.9 | 0.00 | 0.00 | 0.00 | 55 | 1009.1 |
| 20260504045808 | 19 | 294 | 3.2 | 25.7 | 0.00 | 0.00 | 0.00 | 54 | 1009.1 |
| 20260504045308 | 20 | 337 | 8.0 | 20.9 | 0.00 | 0.00 | 0.00 | 52 | 1009.0 |
| 20260504044808 | 19 | 293 | 8.0 | 25.7 | 0.00 | 0.00 | 0.00 | 53 | 1009.0 |
| 20260504044308 | 20 | 248 | 9.7 | 14.5 | 0.00 | 0.00 | 0.00 | 52 | 1008.9 |
| 20260504043807 | 20 | 267 | 8.0 | 24.1 | 0.00 | 0.00 | 0.00 | 52 | 1008.9 |
| 20260504042807 | 19 | 0 | 9.7 | 20.9 | 0.00 | 0.00 | 0.00 | 53 | 1008.8 |
| 20260504042307 | 19 | 318 | 8.0 | 20.9 | 0.00 | 0.00 | 0.00 | 52 | 1008.9 |
| 20260504041807 | 19 | 295 | 9.7 | 25.7 | 0.00 | 0.00 | 0.00 | 53 | 1009.0 |
| 20260504041308 | 19 | 22 | 4.8 | 16.1 | 0.00 | 0.00 | 0.00 | 53 | 1008.8 |
| 20260504040808 | 19 | 200 | 8.0 | 25.7 | 0.00 | 0.00 | 0.00 | 53 | 1008.9 |
| 20260504035307 | 20 | 21 | 9.7 | 22.5 | 0.00 | 0.00 | 0.00 | 51 | 1009.1 |
| 20260504034807 | 20 | 339 | 8.0 | 16.1 | 0.00 | 0.00 | 0.00 | 51 | 1008.9 |
| 20260504034307 | 20 | 315 | 9.7 | 20.9 | 0.00 | 0.00 | 0.00 | 51 | 1008.9 |
| 20260504033807 | 19 | 43 | 4.8 | 22.5 | 0.00 | 0.00 | 0.00 | 52 | 1008.9 |
| 20260504032807 | 19 | 134 | 6.4 | 22.5 | 0.00 | 0.00 | 0.00 | 52 | 1009.0 |
| 20260504032307 | 20 | 294 | 8.0 | 24.1 | 0.00 | 0.00 | 0.00 | 50 | 1008.8 |
| 20260504031806 | 20 | 0 | 8.0 | 19.3 | 0.00 | 0.00 | 0.00 | 50 | 1008.9 |
| 20260504030807 | 19 | 271 | 9.7 | 24.1 | 0.00 | 0.00 | 0.00 | 52 | 1009.2 |
| 20260504030307 | 19 | 251 | 11.3 | 32.2 | 0.00 | 0.00 | 0.00 | 51 | 1009.3 |
| 20260504025807 | 19 | 69 | 9.7 | 32.2 | 0.00 | 0.00 | 0.00 | 52 | 1009.3 |
| 20260504024307 | 18 | 357 | 8.0 | 14.5 | 0.00 | 0.00 | 0.00 | 51 | 1009.5 |
| 20260504023307 | 19 | 334 | 9.7 | 20.9 | 0.00 | 0.00 | 0.00 | 50 | 1009.5 |
| 20260504022808 | 18 | 249 | 4.8 | 24.1 | 0.00 | 0.00 | 0.00 | 51 | 1009.6 |
| 20260504022307 | 19 | 358 | 4.8 | 14.5 | 0.00 | 0.00 | 0.00 | 51 | 1009.8 |
| 20260504021808 | 19 | 315 | 6.4 | 22.5 | 0.00 | 0.00 | 0.00 | 50 | 1009.8 |
| 20260504021309 | 20 | 114 | 8.0 | 22.5 | 0.00 | 0.00 | 0.00 | 49 | 1009.9 |
| 20260504020307 | 19 | 20 | 9.7 | 20.9 | 0.00 | 0.00 | 0.00 | 50 | 1010.0 |
| 20260504015307 | 18 | 336 | 9.7 | 19.3 | 0.00 | 0.00 | 0.00 | 52 | 1010.2 |
| 20260504014807 | 18 | 177 | 4.8 | 19.3 | 0.00 | 0.00 | 0.00 | 52 | 1010.2 |
| 20260504014308 | 18 | 337 | 6.4 | 32.2 | 0.00 | 0.00 | 0.00 | 52 | 1010.3 |
| 20260504013807 | 18 | 43 | 11.3 | 32.2 | 0.00 | 0.00 | 0.00 | 53 | 1010.3 |
| 20260504012308 | 18 | 230 | 8.0 | 27.4 | 0.00 | 0.00 | 0.00 | 54 | 1010.4 |
| 20260504011806 | 18 | 250 | 9.7 | 20.9 | 0.00 | 0.00 | 0.00 | 54 | 1010.5 |
| 20260504011308 | 17 | 271 | 9.7 | 25.7 | 0.00 | 0.00 | 0.00 | 55 | 1010.4 |
| 20260504010807 | 18 | 317 | 8.0 | 16.1 | 0.00 | 0.00 | 0.00 | 54 | 1010.4 |
| 20260504010308 | 18 | 18 | 8.0 | 19.3 | 0.00 | 0.00 | 0.00 | 55 | 1010.5 |
| 20260504005808 | 18 | 20 | 4.8 | 16.1 | 0.00 | 0.00 | 0.00 | 55 | 1010.6 |
| 20260504005307 | 17 | 183 | 8.0 | 20.9 | 0.00 | 0.00 | 0.00 | 56 | 1010.6 |
| 20260504004808 | 17 | 338 | 9.7 | 19.3 | 0.00 | 0.00 | 0.00 | 56 | 1010.4 |
| 20260504004307 | 17 | 41 | 8.0 | 20.9 | 0.00 | 0.00 | 0.00 | 57 | 1010.6 |
| 20260504003806 | 17 | 291 | 8.0 | 24.1 | 0.00 | 0.00 | 0.00 | 57 | 1010.6 |
| 20260504003307 | 17 | 227 | 11.3 | 20.9 | 0.00 | 0.00 | 0.00 | 57 | 1010.6 |
| 20260504002807 | 17 | 20 | 8.0 | 16.1 | 0.00 | 0.00 | 0.00 | 57 | 1010.8 |
| 20260504002307 | 17 | 292 | 4.8 | 22.5 | 0.00 | 0.00 | 0.00 | 57 | 1010.7 |
| 20260504001806 | 17 | 205 | 9.7 | 19.3 | 0.00 | 0.00 | 0.00 | 57 | 1010.8 |
| 20260504001308 | 17 | 0 | 4.8 | 16.1 | 0.00 | 0.00 | 0.00 | 58 | 1010.9 |
| 20260504000808 | 17 | 320 | 8.0 | 20.9 | 0.00 | 0.00 | 0.00 | 59 | 1010.8 |
| 20260504000306 | 17 | 338 | 6.4 | 20.9 | 0.00 | 0.00 | 0.00 | 60 | 1010.7 |
| 20260503235308 | 17 | 336 | 9.7 | 20.9 | 0.00 | 0.08 | 0.00 | 59 | 1010.8 |
| 20260503234807 | 17 | 250 | 8.0 | 20.9 | 0.00 | 0.13 | 0.00 | 59 | 1010.8 |
| 20260503234307 | 17 | 202 | 8.0 | 24.1 | 0.00 | 0.15 | 0.00 | 60 | 1010.8 |
| 20260503233807 | 16 | 293 | 4.8 | 22.5 | 0.00 | 0.20 | 0.00 | 61 | 1010.9 |
| 20260503232808 | 16 | 337 | 8.0 | 20.9 | 0.00 | 0.25 | 0.00 | 63 | 1011.0 |
| 20260503232307 | 16 | 335 | 9.7 | 24.1 | 0.00 | 0.28 | 0.00 | 64 | 1011.0 |
| 20260503231806 | 16 | 274 | 8.0 | 16.1 | 0.00 | 0.28 | 0.00 | 64 | 1011.2 |
| 20260503231307 | 16 | 341 | 4.8 | 12.9 | 0.00 | 0.28 | 0.00 | 64 | 1011.2 |
| 20260503230807 | 16 | 5 | 4.8 | 14.5 | 0.00 | 0.28 | 0.00 | 65 | 1011.0 |
| 20260503230308 | 15 | 314 | 6.4 | 20.9 | 0.00 | 0.28 | 0.00 | 66 | 1011.1 |
| 20260503225807 | 15 | 314 | 4.8 | 12.9 | 0.00 | 0.28 | 0.28 | 66 | 1010.9 |
| 20260503225308 | 15 | 316 | 4.8 | 14.5 | 0.00 | 0.28 | 0.28 | 67 | 1011.0 |
| 20260503224807 | 15 | 340 | 8.0 | 16.1 | 0.00 | 0.28 | 0.28 | 67 | 1011.0 |
| 20260503224308 | 14 | 292 | 4.8 | 12.9 | 0.00 | 0.28 | 0.28 | 68 | 1011.2 |
| 20260503223806 | 15 | 45 | 3.2 | 12.9 | 0.00 | 0.28 | 0.28 | 68 | 1011.1 |
| 20260503223307 | 15 | 21 | 8.0 | 12.9 | 0.00 | 0.28 | 0.28 | 66 | 1011.2 |
| 20260503222808 | 15 | 316 | 4.8 | 9.7 | 0.00 | 0.28 | 0.28 | 68 | 1011.1 |
| 20260503222308 | 14 | 359 | 4.8 | 9.7 | 0.00 | 0.28 | 0.28 | 69 | 1011.0 |
| 20260503221807 | 13 | 2 | 3.2 | 9.7 | 0.00 | 0.28 | 0.28 | 71 | 1011.2 |
| 20260503221307 | 13 | 358 | 6.4 | 12.9 | 0.00 | 0.28 | 0.28 | 72 | 1011.2 |
| 20260503220808 | 13 | 20 | 3.2 | 9.7 | 0.00 | 0.28 | 0.28 | 73 | 1011.2 |
| 20260503220308 | 12 | 293 | 1.6 | 9.7 | 0.00 | 0.28 | 0.28 | 75 | 1011.3 |
| 20260503215807 | 12 | 0 | 4.8 | 9.7 | 0.00 | 0.28 | 0.28 | 76 | 1011.3 |
| 20260503215307 | 12 | 0 | 3.2 | 9.7 | 0.00 | 0.28 | 0.28 | 77 | 1011.3 |
| 20260503214307 | 12 | 22 | 3.2 | 4.8 | 0.00 | 0.28 | 0.28 | 78 | 1011.1 |
| 20260503213807 | 12 | 22 | 3.2 | 4.8 | 0.00 | 0.28 | 0.28 | 79 | 1011.1 |
| 20260503212807 | 12 | 338 | 1.6 | 9.7 | 0.00 | 0.28 | 0.28 | 80 | 1011.0 |
| 20260503211807 | 12 | 359 | 1.6 | 9.7 | 0.00 | 0.28 | 0.28 | 80 | 1011.0 |
| 20260503211308 | 12 | 21 | 3.2 | 9.7 | 0.00 | 0.28 | 0.28 | 80 | 1010.9 |
| 20260503210807 | 12 | 315 | 4.8 | 9.7 | 0.00 | 0.28 | 0.28 | 80 | 1010.7 |
| 20260503210307 | 12 | 72 | 4.8 | 12.9 | 0.00 | 0.28 | 0.28 | 80 | 1010.9 |
| 20260503205807 | 12 | 358 | 4.8 | 12.9 | 0.00 | 0.28 | 0.28 | 81 | 1011.0 |
| 20260503205308 | 12 | 338 | 4.8 | 11.3 | 0.00 | 0.28 | 0.28 | 81 | 1010.8 |
| 20260503204807 | 12 | 339 | 4.8 | 12.9 | 0.00 | 0.28 | 0.28 | 81 | 1010.7 |
| 20260503204308 | 12 | 273 | 4.8 | 14.5 | 0.00 | 0.28 | 0.28 | 81 | 1010.8 |
| 20260503203808 | 12 | 358 | 4.8 | 12.9 | 0.00 | 0.28 | 0.28 | 81 | 1010.8 |
| 20260503202308 | 12 | 339 | 3.2 | 14.5 | 0.00 | 0.28 | 0.28 | 80 | 1010.6 |
| 20260503201808 | 12 | 338 | 4.8 | 11.3 | 0.00 | 0.28 | 0.28 | 80 | 1010.8 |
| 20260503201307 | 12 | 358 | 4.8 | 11.3 | 0.00 | 0.28 | 0.28 | 80 | 1010.8 |
| 20260503200808 | 12 | 43 | 4.8 | 9.7 | 0.00 | 0.28 | 0.28 | 80 | 1010.8 |
| 20260503200308 | 12 | 315 | 6.4 | 11.3 | 0.00 | 0.28 | 0.28 | 80 | 1010.8 |
| 20260503195807 | 12 | 339 | 3.2 | 9.7 | 0.00 | 0.28 | 0.28 | 80 | 1010.5 |
| 20260503195308 | 12 | 358 | 4.8 | 12.9 | 0.00 | 0.28 | 0.28 | 80 | 1010.6 |
| 20260503194807 | 12 | 228 | 3.2 | 8.0 | 0.00 | 0.28 | 0.28 | 80 | 1010.6 |
| 20260503194307 | 12 | 251 | 1.6 | 9.7 | 0.00 | 0.28 | 0.28 | 80 | 1010.7 |
| 20260503193807 | 12 | 25 | 3.2 | 9.7 | 0.00 | 0.28 | 0.28 | 79 | 1010.6 |
| 20260503193308 | 12 | 21 | 4.8 | 11.3 | 0.00 | 0.28 | 0.28 | 79 | 1010.7 |
| 20260503192807 | 12 | 22 | 3.2 | 9.7 | 0.00 | 0.28 | 0.28 | 79 | 1010.9 |
| 20260503192308 | 12 | 22 | 4.8 | 11.3 | 0.00 | 0.28 | 0.28 | 79 | 1010.8 |
| 20260503191807 | 12 | 359 | 3.2 | 11.3 | 0.00 | 0.28 | 0.28 | 79 | 1010.9 |
| 20260503191308 | 12 | 22 | 3.2 | 11.3 | 0.00 | 0.28 | 0.28 | 79 | 1011.0 |
| 20260503190307 | 12 | 358 | 3.2 | 11.3 | 0.00 | 0.28 | 0.28 | 79 | 1011.0 |
| 20260503185807 | 12 | 336 | 4.8 | 12.9 | 0.00 | 0.28 | 0.28 | 79 | 1010.9 |
| 20260503185308 | 12 | 339 | 4.8 | 12.9 | 0.00 | 0.28 | 0.28 | 79 | 1011.0 |
| 20260503184807 | 12 | 20 | 3.2 | 12.9 | 0.00 | 0.28 | 0.28 | 80 | 1010.8 |
| 20260503184308 | 12 | 45 | 4.8 | 12.9 | 0.00 | 0.28 | 0.28 | 80 | 1010.8 |
| 20260503183807 | 12 | 317 | 4.8 | 14.5 | 0.00 | 0.28 | 0.28 | 80 | 1011.0 |
| 20260503182807 | 12 | 357 | 4.8 | 9.7 | 0.00 | 0.28 | 0.28 | 81 | 1011.1 |
| 20260503182307 | 12 | 67 | 3.2 | 8.0 | 0.00 | 0.28 | 0.28 | 81 | 1011.0 |
| 20260503181807 | 12 | 22 | 3.2 | 9.7 | 0.00 | 0.28 | 0.28 | 81 | 1011.0 |
| 20260503181308 | 12 | 21 | 4.8 | 11.3 | 0.00 | 0.28 | 0.28 | 82 | 1011.1 |
| 20260503180807 | 12 | 340 | 3.2 | 8.0 | 0.00 | 0.28 | 0.28 | 82 | 1011.1 |
| 20260503180306 | 12 | 23 | 3.2 | 9.7 | 0.00 | 0.28 | 0.28 | 81 | 1011.1 |
| 20260503175808 | 12 | 0 | 3.2 | 8.0 | 0.00 | 0.28 | 0.28 | 81 | 1011.1 |
| 20260503175308 | 12 | 293 | 4.8 | 9.7 | 0.00 | 0.28 | 0.28 | 81 | 1011.2 |
| 20260503174808 | 12 | 46 | 3.2 | 11.3 | 0.00 | 0.28 | 0.28 | 82 | 1011.2 |
| 20260503174308 | 12 | 357 | 4.8 | 12.9 | 0.00 | 0.28 | 0.28 | 82 | 1011.4 |
| 20260503173307 | 12 | 339 | 3.2 | 9.7 | 0.00 | 0.28 | 0.28 | 83 | 1011.4 |
| 20260503172807 | 12 | 339 | 4.8 | 9.7 | 0.00 | 0.28 | 0.28 | 83 | 1011.5 |
| 20260503172307 | 12 | 339 | 4.8 | 11.3 | 0.00 | 0.28 | 0.28 | 83 | 1011.5 |
| 20260503170808 | 12 | 21 | 4.8 | 12.9 | 0.00 | 0.28 | 0.28 | 83 | 1011.7 |
| 20260503170307 | 12 | 43 | 4.8 | 14.5 | 0.00 | 0.28 | 0.28 | 83 | 1011.7 |
| 20260503131308 | 13 | 21 | 1.6 | 4.8 | 0.00 | 0.28 | 0.28 | 80 | 1012.4 |
| 20260503130808 | 13 | 22 | 1.6 | 4.8 | 0.00 | 0.28 | 0.28 | 80 | 1012.3 |
| 20260503130307 | 13 | 316 | 1.6 | 3.2 | 0.00 | 0.28 | 0.28 | 80 | 1012.2 |
| 20260503110807 | 15 | 340 | 3.2 | 9.7 | 0.00 | 0.28 | 0.28 | 75 | 1012.4 |
| 20260503110308 | 15 | 340 | 3.2 | 4.8 | 0.00 | 0.28 | 0.28 | 75 | 1012.5 |
| 20260503090308 | 15 | 0 | 1.6 | 3.2 | 0.00 | 0.28 | 0.28 | 70 | 1011.7 |
| 20260503081308 | 15 | 317 | 0.0 | 3.2 | 0.00 | 0.28 | 0.28 | 66 | 1010.9 |
| 20260503080307 | 15 | 0 | 1.6 | 3.2 | 0.00 | 0.28 | 0.28 | 65 | 1011.1 |
| 20260503072807 | 16 | 300 | 1.6 | 9.7 | 0.00 | 0.28 | 0.28 | 60 | 1010.8 |
| 20260503071806 | 17 | 273 | 1.6 | 9.7 | 0.00 | 0.28 | 0.28 | 59 | 1010.7 |
| 20260503071308 | 17 | 338 | 1.6 | 4.8 | 0.00 | 0.28 | 0.28 | 59 | 1010.6 |
| 20260503070809 | 17 | 315 | 1.6 | 8.0 | 0.00 | 0.28 | 0.28 | 58 | 1010.7 |
| 20260503070307 | 17 | 290 | 1.6 | 4.8 | 0.00 | 0.28 | 0.28 | 57 | 1010.5 |